TimeEST,TemperatureF,Dew PointF,Humidity,Sea Level PressureIn,VisibilityMPH,Wind Direction,Wind SpeedMPH,Gust SpeedMPH,PrecipitationIn,Events,Conditions,WindDirDegrees,DateUTC
12:02 AM,71.6,66.2,83,30.08,10.0,NE,10.4,-,N/A,,Overcast,40,2012-12-14 05:02:00
12:53 AM,71.1,64.9,81,30.07,10.0,NNE,9.2,-,N/A,,Overcast,20,2012-12-14 05:53:00
1:53 AM,71.1,64.9,81,30.08,10.0,NNE,9.2,-,N/A,,Overcast,20,2012-12-14 06:53:00
2:53 AM,70.0,64.9,84,30.06,10.0,NNE,9.2,-,N/A,,Overcast,20,2012-12-14 07:53:00
3:53 AM,70.0,64.9,84,30.06,10.0,North,11.5,-,N/A,,Overcast,10,2012-12-14 08:53:00
4:53 AM,70.0,64.9,84,30.06,10.0,North,15.0,20.7,N/A,,Overcast,10,2012-12-14 09:53:00
5:53 AM,69.1,64.9,87,30.07,10.0,North,12.7,19.6,N/A,,Overcast,10,2012-12-14 10:53:00
6:53 AM,69.1,64.9,87,30.09,10.0,North,11.5,-,N/A,,Overcast,360,2012-12-14 11:53:00
7:00 AM,69.8,64.4,83,30.10,10.0,North,12.7,-,N/A,,Overcast,360,2012-12-14 12:00:00
7:53 AM,68.0,64.9,90,30.10,10.0,North,13.8,-,N/A,,Overcast,360,2012-12-14 12:53:00
8:53 AM,69.1,64.9,87,30.12,10.0,North,9.2,-,N/A,,Overcast,10,2012-12-14 13:53:00
9:41 AM,71.6,64.4,78,30.12,10.0,North,9.2,-,N/A,,Mostly Cloudy,10,2012-12-14 14:41:00
9:53 AM,71.1,64.9,81,30.12,10.0,NNE,10.4,-,N/A,,Mostly Cloudy,20,2012-12-14 14:53:00
10:53 AM,73.0,64.9,76,30.12,10.0,North,13.8,-,N/A,,Mostly Cloudy,10,2012-12-14 15:53:00
11:53 AM,73.0,66.0,79,30.11,10.0,North,10.4,-,N/A,,Overcast,10,2012-12-14 16:53:00
12:51 PM,73.4,66.2,78,30.09,10.0,North,12.7,-,N/A,,Overcast,10,2012-12-14 17:51:00
12:53 PM,73.0,66.0,79,30.09,10.0,North,11.5,-,N/A,,Overcast,360,2012-12-14 17:53:00
1:53 PM,73.0,66.0,79,30.07,10.0,NNE,11.5,-,N/A,,Mostly Cloudy,20,2012-12-14 18:53:00
2:53 PM,73.9,66.9,79,30.05,10.0,NNE,9.2,-,N/A,,Mostly Cloudy,20,2012-12-14 19:53:00
3:20 PM,73.4,66.2,78,30.04,10.0,North,9.2,-,N/A,,Mostly Cloudy,10,2012-12-14 20:20:00
3:53 PM,73.9,66.9,79,30.04,10.0,North,10.4,-,N/A,,Mostly Cloudy,10,2012-12-14 20:53:00
4:53 PM,73.0,66.9,81,30.04,10.0,North,12.7,-,N/A,,Mostly Cloudy,360,2012-12-14 21:53:00
5:53 PM,72.0,66.9,84,30.05,10.0,North,6.9,-,N/A,,Mostly Cloudy,360,2012-12-14 22:53:00
6:53 PM,73.0,68.0,84,30.05,10.0,NNE,5.8,-,N/A,,Mostly Cloudy,20,2012-12-14 23:53:00
7:53 PM,73.9,63.0,68,30.08,10.0,ENE,11.5,16.1,N/A,,Mostly Cloudy,60,2012-12-15 00:53:00
8:53 PM,73.0,64.0,73,30.08,10.0,NE,8.1,-,N/A,,Mostly Cloudy,50,2012-12-15 01:53:00
9:53 PM,73.0,64.0,73,30.08,10.0,NE,6.9,-,N/A,,Scattered Clouds,50,2012-12-15 02:53:00
10:53 PM,72.0,64.0,76,30.08,10.0,NE,6.9,-,N/A,,Clear,50,2012-12-15 03:53:00
11:53 PM,72.0,64.0,76,30.06,10.0,NE,8.1,-,N/A,,Clear,50,2012-12-15 04:53:00